Wind_Speed
13 14 14 15 15 15 15 15 15 15 16 16 16 16 16 17 18 18 19 20 20 20 21 21 22 22 23 24 25 26 26 27 27 27 28 29 29 29
13 13 14 14 14 13 14 15 15 15 15 15 15 16 17 17 18 18 19 19 19 20 20 21 22 22 23 24 25 26 27 27 28 28 29 30 30 30
12 12 11 12 13 13 14 15 15 15 15 15 15 16 17 17 18 18 18 19 19 21 21 22 22 23 24 24 25 26 26 27 28 29 29 30 31 31
12 12 12 12 13 14 14 15 15 15 15 15 16 16 16 16 17 18 18 19 20 21 22 23 23 23 24 24 25 25 26 27 28 29 30 30 31 32
11 12 12 12 12 13 14 15 15 15 15 16 16 16 15 15 16 18 19 20 21 21 22 23 23 23 24 24 25 25 26 27 28 29 30 31 31 32
11 11 12 12 12 13 14 14 14 15 15 15 15 15 16 16 17 18 19 20 21 21 22 22 23 23 24 24 25 25 26 27 27 28 29 30 31 32
11 12 12 12 12 13 13 13 14 14 14 14 15 16 16 17 18 18 19 19 20 21 21 22 23 24 24 24 25 26 26 27 27 28 28 29 30 31
11 12 12 12 13 13 13 13 14 14 14 14 15 16 17 17 17 18 18 19 19 20 21 22 22 23 24 24 25 25 26 27 28 27 27 28 28 29
12 12 12 13 12 12 12 13 14 14 14 15 15 16 17 18 18 18 18 18 19 19 20 20 21 22 22 23 24 24 25 26 27 27 27 27 27 28
13 13 13 13 13 13 13 14 14 14 14 15 16 17 17 18 18 18 19 19 20 20 20 20 20 21 22 23 23 23 25 25 26 26 26 26 26 26
12 12 12 12 13 13 14 14 14 15 15 15 17 17 18 18 18 19 19 20 20 20 21 21 21 21 22 22 22 23 24 24 25 25 25 25 25 26
11 12 12 12 12 13 13 14 14 14 15 16 17 17 17 17 18 19 20 20 20 21 21 21 21 22 22 22 23 23 24 24 24 23 24 25 25 25
12 12 12 12 12 12 13 13 14 14 15 15 16 16 17 17 17 18 19 19 20 21 21 21 22 22 22 23 23 24 24 24 23 23 23 24 24 24
13 13 13 13 13 13 13 14 14 14 14 14 15 15 17 18 18 19 19 20 21 22 22 22 21 22 22 23 23 24 24 23 23 22 23 23 22 22
14 14 14 14 14 14 14 14 15 15 14 14 15 16 17 18 18 19 19 20 20 21 21 21 21 22 23 23 23 24 24 23 22 21 21 21 20 20
14 14 15 15 15 14 15 15 15 15 15 15 16 17 18 18 18 19 19 20 20 20 21 21 22 22 23 23 23 23 23 22 21 20 19 19 19 20
15 15 15 15 15 15 15 15 15 15 15 15 16 17 18 18 19 20 20 20 20 21 21 22 23 23 23 23 22 22 22 21 20 19 19 19 20 20
15 15 15 15 16 16 15 15 15 15 15 16 17 18 18 18 19 20 20 21 21 21 22 22 22 23 24 23 22 22 22 20 19 19 19 20 20 20
15 15 15 15 16 16 15 15 15 15 16 16 17 18 19 19 19 20 21 21 21 21 21 22 22 22 23 22 21 21 20 20 19 19 19 19 19 19
14 14 15 15 15 16 16 16 17 17 17 17 18 19 20 20 20 21 21 21 21 22 22 22 21 22 22 21 21 19 19 20 19 19 19 20 19 19
14 15 15 16 16 17 17 17 17 17 17 18 19 20 20 21 21 22 22 22 22 22 22 21 21 21 21 20 20 19 19 20 20 20 19 19 20 20
16 16 16 17 17 17 17 16 16 17 18 19 19 20 20 21 22 23 23 23 23 22 21 21 21 21 20 20 20 20 20 20 20 20 19 20 20 20
16 16 17 17 17 16 16 16 17 17 18 19 19 20 21 21 22 23 23 22 22 21 21 21 21 21 20 20 20 20 20 20 20 19 19 20 20 20
Wind_Direction
273 271 272 269 266 266 267 271 273 272 271 271 273 274 272 271 269 271 274 276 276 275 275 275 274 274 274 273 272 271 271 270 269 270 269 269 269 269
277 276 275 272 269 269 271 272 274 274 274 272 272 274 275 276 273 274 275 276 275 276 276 277 278 278 278 276 275 274 275 274 272 271 272 270 269 270
280 281 279 276 271 272 273 273 274 275 276 275 275 275 276 276 276 276 276 276 276 277 278 279 280 281 280 278 277 276 277 277 275 274 274 272 271 271
278 278 278 276 273 272 273 273 275 275 277 276 276 278 278 277 276 276 277 279 280 279 279 279 280 281 281 280 279 278 278 278 278 277 275 273 273 272
274 274 275 275 275 274 274 275 276 275 277 277 278 279 279 281 280 279 278 279 280 280 280 279 280 280 281 282 282 281 281 281 280 279 278 276 274 273
274 273 274 275 276 276 277 277 278 277 278 279 279 281 282 284 285 286 284 283 283 283 283 281 281 281 283 284 284 284 283 283 282 282 280 278 276 274
276 275 276 276 278 279 279 280 279 279 280 280 279 281 284 288 288 288 287 286 287 287 286 285 284 284 286 286 285 284 284 283 283 282 282 281 280 276
281 278 280 281 280 278 278 278 280 281 282 281 281 282 285 288 291 293 291 290 292 292 290 289 288 287 287 286 286 285 285 285 285 285 284 283 282 279
286 284 283 284 279 277 277 279 282 282 284 283 282 283 286 288 290 293 296 297 294 294 293 295 295 292 290 289 288 287 287 288 288 286 285 285 284 282
287 284 283 285 282 277 278 280 282 284 285 284 285 286 287 288 290 293 297 299 299 297 296 298 299 299 296 292 290 290 291 291 290 288 288 288 288 286
290 289 291 293 291 285 282 282 283 284 284 284 286 287 289 290 291 294 297 299 298 297 297 299 300 300 300 299 297 296 295 295 293 291 291 291 291 289
298 297 295 295 295 292 290 289 289 289 287 285 287 289 291 292 293 295 298 298 298 297 297 299 302 303 302 301 301 300 298 297 296 294 293 293 292 292
302 301 298 297 294 293 295 296 295 294 293 291 289 290 292 295 297 299 300 300 301 301 301 300 301 302 303 302 302 302 302 300 297 294 294 295 295 295
299 299 299 299 296 294 296 298 299 300 299 297 295 295 296 297 299 300 301 303 304 303 302 302 301 301 302 303 303 304 303 301 299 297 296 297 298 298
299 299 297 299 299 297 298 300 302 301 298 299 301 302 302 301 303 304 304 306 306 305 303 304 305 304 305 306 305 305 305 302 301 299 298 298 299 300
298 298 297 297 297 295 295 297 299 298 298 299 301 304 305 305 305 306 307 307 307 307 307 308 309 308 308 307 307 306 307 304 301 300 301 301 302 303
298 297 295 294 294 294 294 294 297 297 298 301 303 305 307 308 308 309 309 309 308 307 307 309 310 310 311 310 309 307 307 304 302 301 302 303 304 304
299 300 298 295 295 295 292 294 297 297 298 300 303 307 308 309 309 309 309 311 310 309 308 310 310 311 313 312 310 309 309 308 304 303 304 304 304 303
298 300 299 297 296 295 293 293 295 296 299 302 305 308 308 308 309 311 311 311 311 311 312 312 312 312 313 314 313 311 308 308 306 305 306 307 308 307
298 300 300 299 298 295 293 293 294 295 298 301 304 306 307 309 310 311 312 312 312 312 313 314 314 314 314 313 312 311 309 308 306 306 306 308 308 309
296 299 301 302 302 300 297 295 296 297 299 301 304 305 307 309 310 310 311 312 312 312 313 314 313 313 314 314 312 310 309 311 309 306 305 307 309 309
294 296 300 302 303 304 302 300 299 300 301 304 306 307 308 309 310 311 311 311 310 310 311 312 312 312 312 313 312 310 310 310 310 308 306 306 309 311
296 297 299 303 305 305 305 304 302 303 304 305 307 308 308 309 311 312 312 311 310 308 308 310 311 310 309 311 311 311 310 308 306 306 307 307 308 310
Height
5789 5789 5789 5789 5789 5790 5790 5790 5790 5790 5790 5790 5789 5789 5789 5789 5789 5789 5789 5789 5788 5788 5787 5787 5786 5786 5785 5785 5785 5785 5785 5785 5785 5785 5785 5785 5784 5784
5785 5785 5785 5785 5785 5785 5786 5786 5786 5786 5785 5785 5785 5784 5784 5784 5784 5784 5783 5783 5782 5781 5781 5780 5780 5779 5779 5778 5778 5777 5777 5777 5777 5776 5776 5776 5776 5775
5782 5781 5781 5781 5781 5781 5781 5781 5781 5781 5781 5780 5780 5779 5779 5779 5778 5778 5777 5777 5776 5775 5775 5774 5773 5772 5772 5771 5770 5770 5769 5769 5768 5768 5767 5767 5766 5766
5778 5778 5777 5777 5777 5777 5777 5777 5777 5776 5776 5776 5775 5774 5774 5773 5773 5772 5772 5771 5770 5769 5768 5767 5766 5765 5764 5764 5763 5762 5761 5760 5760 5759 5758 5758 5757 5757
5774 5774 5773 5773 5773 5772 5772 5772 5772 5772 5771 5771 5770 5770 5769 5768 5767 5767 5766 5765 5764 5763 5761 5761 5760 5758 5757 5756 5755 5754 5753 5752 5751 5750 5749 5748 5747 5747
5770 5770 5770 5769 5769 5768 5768 5767 5767 5767 5766 5766 5765 5765 5764 5763 5762 5761 5760 5759 5757 5756 5755 5754 5753 5751 5750 5749 5747 5746 5745 5744 5742 5741 5740 5739 5737 5737
5766 5766 5766 5765 5764 5764 5763 5763 5762 5762 5762 5761 5761 5760 5759 5758 5757 5756 5754 5753 5751 5750 5748 5747 5745 5744 5743 5741 5740 5738 5737 5735 5734 5732 5731 5729 5727 5726
5763 5762 5762 5761 5760 5760 5759 5759 5758 5758 5757 5756 5756 5755 5754 5753 5752 5750 5749 5747 5746 5744 5742 5740 5738 5737 5735 5734 5732 5731 5729 5727 5725 5724 5722 5720 5718 5716
5759 5758 5758 5757 5756 5756 5755 5755 5754 5753 5753 5752 5752 5751 5750 5748 5747 5745 5743 5742 5740 5739 5736 5734 5732 5730 5728 5726 5725 5723 5721 5719 5717 5715 5713 5711 5709 5708
5756 5755 5754 5753 5752 5751 5751 5750 5750 5749 5748 5748 5747 5746 5744 5743 5741 5740 5738 5736 5735 5733 5730 5729 5726 5724 5722 5720 5717 5715 5713 5711 5709 5707 5705 5703 5701 5699
5752 5751 5750 5749 5748 5747 5747 5746 5745 5745 5743 5742 5741 5740 5739 5738 5736 5735 5733 5731 5729 5727 5725 5723 5721 5718 5716 5713 5710 5708 5706 5703 5701 5699 5697 5695 5693 5691
5749 5748 5747 5746 5745 5744 5743 5742 5741 5740 5739 5738 5737 5735 5734 5732 5731 5730 5728 5726 5724 5722 5719 5717 5715 5712 5710 5707 5705 5702 5699 5696 5694 5692 5689 5687 5685 5682
5746 5745 5744 5742 5742 5741 5739 5738 5737 5736 5734 5733 5732 5731 5729 5728 5726 5724 5722 5721 5719 5716 5714 5711 5709 5706 5704 5702 5699 5695 5692 5690 5687 5685 5682 5680 5677 5675
5744 5742 5741 5739 5738 5737 5736 5735 5733 5732 5730 5729 5728 5726 5725 5723 5721 5719 5717 5715 5713 5711 5708 5705 5703 5701 5698 5695 5693 5689 5686 5683 5680 5678 5675 5673 5670 5668
5740 5739 5737 5736 5734 5733 5732 5731 5729 5728 5727 5726 5724 5723 5721 5719 5717 5715 5712 5710 5708 5705 5703 5700 5698 5695 5692 5690 5687 5683 5680 5677 5674 5672 5669 5667 5665 5662
5736 5735 5733 5732 5730 5729 5728 5727 5726 5724 5723 5722 5721 5719 5717 5714 5712 5710 5708 5705 5703 5700 5698 5695 5692 5690 5687 5683 5680 5677 5674 5671 5669 5666 5664 5661 5659 5657
5732 5731 5729 5728 5726 5725 5724 5723 5722 5720 5719 5718 5716 5714 5712 5710 5707 5705 5703 5700 5698 5695 5693 5690 5687 5683 5680 5678 5675 5671 5668 5665 5663 5661 5659 5657 5654 5652
5728 5726 5725 5723 5722 5721 5720 5719 5718 5716 5715 5714 5712 5710 5708 5705 5703 5701 5698 5695 5693 5690 5688 5685 5681 5678 5675 5672 5670 5666 5663 5660 5658 5656 5654 5651 5649 5647
5724 5722 5720 5719 5718 5716 5715 5714 5713 5712 5711 5709 5707 5705 5703 5701 5698 5696 5693 5691 5688 5685 5682 5679 5676 5673 5670 5667 5664 5661 5658 5656 5653 5651 5649 5646 5644 5641
5719 5718 5716 5715 5714 5712 5711 5710 5708 5707 5706 5704 5702 5700 5698 5696 5694 5691 5688 5686 5683 5680 5677 5674 5671 5668 5665 5662 5659 5656 5654 5651 5649 5646 5644 5641 5639 5636
5716 5714 5712 5711 5709 5707 5706 5705 5704 5702 5701 5699 5697 5695 5693 5691 5688 5686 5683 5680 5677 5674 5672 5669 5666 5663 5660 5657 5655 5652 5649 5646 5644 5641 5639 5637 5634 5632
5711 5710 5708 5706 5705 5703 5701 5700 5699 5697 5696 5694 5692 5690 5688 5686 5683 5680 5678 5675 5672 5669 5666 5663 5660 5658 5655 5653 5650 5647 5644 5641 5639 5636 5634 5632 5630 5627
5707 5706 5704 5702 5701 5699 5697 5696 5695 5693 5691 5689 5687 5685 5683 5680 5678 5675 5672 5669 5666 5663 5661 5658 5655 5652 5650 5647 5645 5642 5640 5637 5634 5631 5629 5626 5624 5622